Location: Carter Lake Observing Site
(40.3115°N, 105.2221°W)
Time: 02:41:04
(UTC-06:00)

ISS - Visible Passes

Search period start: 24 September 2017 00:00
Search period end: 04 October 2017 00:00
Orbit: 401 x 407 km, 51.6° (Epoch: 24 September)

Date Brightness Start Highest point End Pass type
(mag) Time Alt. Az. Time Alt. Az. Time Alt. Az.
24 Sep -3.3 20:16:58 10° SSW 20:19:46 39° SSE 20:19:46 39° SSE visible
25 Sep -2.4 19:25:21 10° S 19:27:52 21° SE 19:30:18 10° E visible
25 Sep -1.9 21:01:01 10° WSW 21:02:59 29° W 21:02:59 29° W visible
26 Sep -3.8 20:08:30 10° WSW 20:11:46 79° NW 20:13:17 29° NE visible
27 Sep -3.6 19:16:18 10° SW 19:19:28 52° SE 19:22:39 10° ENE visible
27 Sep -1.7 20:53:24 10° W 20:56:05 23° NNW 20:56:05 23° NNW visible
28 Sep -2.4 20:00:34 10° W 20:03:36 35° NNW 20:06:02 14° NE visible
29 Sep -3.4 19:07:55 10° WSW 19:11:08 63° NW 19:14:24 10° NE visible
29 Sep -1.2 20:46:02 10° NW 20:48:08 16° NNW 20:48:33 15° N visible
30 Sep -1.6 19:52:58 10° WNW 19:55:30 21° NNW 19:58:04 10° NNE visible
01 Oct -1.0 20:38:45 10° NW 20:40:13 12° N 20:40:36 12° N visible
02 Oct -1.2 19:45:34 10° NW 19:47:29 15° NNW 19:49:25 10° NNE visible
03 Oct -1.0 20:31:07 10° NNW 20:32:17 11° N 20:32:25 11° N visible
